| time (UTC) | temp F | wind direction | speed MPH | gust MPH | rain 1hr in | rain 24hr in | rain mn in | humidity % | barometer mb |
| 20260507205004 | 86 | 189 | 7.0 | 21.0 | 0.00 | 0.00 | 0.00 | 39 | 1017.2 |
| 20260507204004 | 86 | 149 | 9.0 | 21.0 | 0.00 | 0.00 | 0.00 | 39 | 1017.0 |
| 20260507203004 | 86 | 164 | 7.0 | 20.0 | 0.00 | 0.00 | 0.00 | 37 | 1017.2 |
| 20260507202004 | 86 | 179 | 7.0 | 16.0 | 0.00 | 0.00 | 0.00 | 36 | 1017.4 |
| 20260507201003 | 87 | 161 | 6.0 | 20.0 | 0.00 | 0.00 | 0.00 | 36 | 1017.6 |
| 20260507200003 | 86 | 166 | 6.0 | 18.0 | 0.00 | 0.00 | 0.00 | 36 | 1017.7 |
| 20260507194004 | 87 | 148 | 5.0 | 16.0 | 0.00 | 0.00 | 0.00 | 34 | 1018.0 |
| 20260507192004 | 87 | 176 | 6.0 | 17.0 | 0.00 | 0.00 | 0.00 | 33 | 1018.1 |
| 20260507191003 | 88 | 160 | 3.0 | 9.0 | 0.00 | 0.00 | 0.00 | 33 | 1018.3 |
| 20260507185004 | 88 | 290 | 2.0 | 12.0 | 0.00 | 0.00 | 0.00 | 29 | 1018.6 |
| 20260507184003 | 86 | 168 | 6.0 | 12.0 | 0.00 | 0.00 | 0.00 | 30 | 1018.5 |
| 20260507183003 | 87 | 173 | 3.0 | 12.0 | 0.00 | 0.00 | 0.00 | 29 | 1018.6 |
| 20260507182003 | 87 | 155 | 7.0 | 12.0 | 0.00 | 0.00 | 0.00 | 30 | 1018.7 |
| 20260507181004 | 88 | 170 | 1.0 | 8.0 | 0.00 | 0.00 | 0.00 | 31 | 1018.8 |
| 20260507180003 | 87 | 282 | 3.0 | 8.0 | 0.00 | 0.00 | 0.00 | 33 | 1018.9 |
| 20260507175003 | 87 | 78 | 2.0 | 8.0 | 0.00 | 0.00 | 0.00 | 34 | 1019.1 |
| 20260507174003 | 85 | 158 | 1.0 | 6.0 | 0.00 | 0.00 | 0.00 | 33 | 1019.3 |
| 20260507173004 | 84 | 147 | 2.0 | 6.0 | 0.00 | 0.00 | 0.00 | 32 | 1019.5 |
| 20260507172004 | 84 | 72 | 1.0 | 6.0 | 0.00 | 0.00 | 0.00 | 33 | 1019.5 |
| 20260507171004 | 83 | 227 | 0.0 | 6.0 | 0.00 | 0.00 | 0.00 | 31 | 1019.5 |
| 20260507170003 | 82 | 327 | 2.0 | 6.0 | 0.00 | 0.00 | 0.00 | 33 | 1019.7 |
| 20260507165003 | 80 | 321 | 4.0 | 6.0 | 0.00 | 0.00 | 0.00 | 37 | 1019.7 |
| 20260507163004 | 81 | 259 | 1.0 | 5.0 | 0.00 | 0.00 | 0.00 | 36 | 1019.7 |
| 20260507153003 | 77 | 117 | 1.0 | 3.0 | 0.00 | 0.00 | 0.00 | 50 | 1020.1 |
| 20260507152005 | 75 | 54 | 1.0 | 3.0 | 0.00 | 0.00 | 0.00 | 58 | 1020.2 |
| 20260507151006 | 73 | 340 | 2.0 | 3.0 | 0.00 | 0.00 | 0.00 | 62 | 1020.1 |
| 20260507150006 | 74 | 188 | 1.0 | 3.0 | 0.00 | 0.00 | 0.00 | 62 | 1020.2 |
| 20260507145004 | 72 | 53 | 1.0 | 3.0 | 0.00 | 0.00 | 0.00 | 65 | 1020.1 |
| 20260507144004 | 73 | 99 | 1.0 | 3.0 | 0.00 | 0.00 | 0.00 | 64 | 1020.1 |
| 20260507143003 | 70 | 35 | 1.0 | 3.0 | 0.00 | 0.00 | 0.00 | 66 | 1020.3 |
| 20260507142004 | 69 | 329 | 1.0 | 2.0 | 0.00 | 0.00 | 0.00 | 67 | 1020.2 |
| 20260507141003 | 69 | 41 | 0.0 | 3.0 | 0.00 | 0.00 | 0.00 | 69 | 1020.0 |
| 20260507135004 | 67 | 149 | 1.0 | 2.0 | 0.00 | 0.00 | 0.00 | 72 | 1020.0 |
| 20260507134004 | 64 | 98 | 2.0 | 3.0 | 0.00 | 0.00 | 0.00 | 77 | 1020.0 |
| 20260507133004 | 63 | 120 | 3.0 | 3.0 | 0.00 | 0.00 | 0.00 | 79 | 1020.0 |
| 20260507132004 | 62 | 113 | 1.0 | 2.0 | 0.00 | 0.00 | 0.00 | 80 | 1020.1 |
| 20260507131004 | 62 | 35 | 0.0 | 2.0 | 0.00 | 0.00 | 0.00 | 80 | 1019.9 |
| 20260507130003 | 61 | 92 | 2.0 | 2.0 | 0.00 | 0.00 | 0.00 | 82 | 1019.9 |
| 20260507125003 | 60 | 126 | 1.0 | 3.0 | 0.00 | 0.00 | 0.00 | 82 | 1019.8 |
| 20260507124004 | 60 | 107 | 3.0 | 3.0 | 0.00 | 0.00 | 0.00 | 83 | 1019.8 |
| 20260507123004 | 60 | 240 | 0.0 | 1.0 | 0.00 | 0.00 | 0.00 | 83 | 1019.8 |
| 20260507122004 | 60 | 256 | 0.0 | 2.0 | 0.00 | 0.00 | 0.00 | 82 | 1019.7 |
| 20260507121007 | 60 | 289 | 1.0 | 3.0 | 0.00 | 0.00 | 0.00 | 81 | 1019.6 |
| 20260507120008 | 62 | 262 | 0.0 | 3.0 | 0.00 | 0.00 | 0.00 | 81 | 1019.7 |
| 20260507114003 | 62 | 113 | 1.0 | 3.0 | 0.00 | 0.00 | 0.00 | 81 | 1019.6 |
| 20260507113005 | 62 | 145 | 0.0 | 3.0 | 0.00 | 0.00 | 0.00 | 81 | 1019.4 |
| 20260507112004 | 62 | 108 | 1.0 | 3.0 | 0.00 | 0.00 | 0.00 | 81 | 1019.4 |
| 20260507111003 | 61 | 123 | 2.0 | 2.0 | 0.00 | 0.00 | 0.00 | 81 | 1019.3 |
| 20260507110004 | 61 | 110 | 2.0 | 2.0 | 0.00 | 0.00 | 0.00 | 81 | 1019.2 |
| 20260507104004 | 60 | 252 | 1.0 | 3.0 | 0.00 | 0.00 | 0.00 | 80 | 1019.2 |
| 20260507103004 | 62 | 245 | 1.0 | 2.0 | 0.00 | 0.00 | 0.00 | 79 | 1019.0 |
| 20260507102006 | 62 | 255 | 0.0 | 3.0 | 0.00 | 0.00 | 0.00 | 81 | 1019.0 |
| 20260507101004 | 62 | 93 | 2.0 | 3.0 | 0.00 | 0.00 | 0.00 | 80 | 1019.0 |
| 20260507100004 | 62 | 133 | 0.0 | 2.0 | 0.00 | 0.00 | 0.00 | 80 | 1019.1 |
| 20260507095004 | 62 | 155 | 1.0 | 2.0 | 0.00 | 0.00 | 0.00 | 79 | 1019.1 |
| 20260507094004 | 62 | 90 | 0.0 | 2.0 | 0.00 | 0.00 | 0.00 | 79 | 1019.2 |
| 20260507093003 | 62 | 88 | 2.0 | 2.0 | 0.00 | 0.00 | 0.00 | 79 | 1019.0 |
| 20260507092003 | 62 | 316 | 0.0 | 3.0 | 0.00 | 0.00 | 0.00 | 79 | 1019.3 |
| 20260507090005 | 64 | 98 | 0.0 | 3.0 | 0.00 | 0.00 | 0.00 | 79 | 1019.2 |
| 20260507085004 | 64 | 131 | 1.0 | 2.0 | 0.00 | 0.00 | 0.00 | 78 | 1019.2 |
| 20260507082004 | 64 | 285 | 0.0 | 2.0 | 0.00 | 0.00 | 0.00 | 76 | 1019.6 |
| 20260507075004 | 64 | 67 | 2.0 | 3.0 | 0.00 | 0.00 | 0.00 | 75 | 1019.9 |
| 20260507074003 | 65 | 113 | 2.0 | 3.0 | 0.00 | 0.00 | 0.00 | 75 | 1020.0 |
| 20260507073004 | 65 | 107 | 1.0 | 3.0 | 0.00 | 0.00 | 0.00 | 74 | 1020.2 |
| 20260507072004 | 65 | 110 | 2.0 | 5.0 | 0.00 | 0.00 | 0.00 | 73 | 1020.0 |
| 20260507071006 | 65 | 129 | 3.0 | 5.0 | 0.00 | 0.00 | 0.00 | 73 | 1020.3 |
| 20260507070009 | 65 | 150 | 1.0 | 3.0 | 0.00 | 0.00 | 0.00 | 74 | 1020.3 |
| 20260507065004 | 65 | 15 | 0.0 | 3.0 | 0.00 | 0.00 | 0.00 | 73 | 1020.5 |
| 20260507064004 | 65 | 96 | 2.0 | 3.0 | 0.00 | 0.00 | 0.00 | 71 | 1020.5 |
| 20260507062004 | 65 | 113 | 1.0 | 3.0 | 0.00 | 0.00 | 0.00 | 70 | 1020.5 |
| 20260507060004 | 65 | 81 | 1.0 | 3.0 | 0.00 | 0.00 | 0.00 | 69 | 1020.7 |
| 20260507055004 | 65 | 105 | 1.0 | 3.0 | 0.00 | 0.00 | 0.00 | 69 | 1020.8 |
| 20260507054004 | 65 | 254 | 0.0 | 5.0 | 0.00 | 0.00 | 0.00 | 69 | 1020.7 |
| 20260507053004 | 65 | 269 | 1.0 | 6.0 | 0.00 | 0.00 | 0.00 | 68 | 1020.8 |
| 20260507052004 | 66 | 333 | 3.0 | 5.0 | 0.00 | 0.00 | 0.00 | 65 | 1020.6 |
| 20260507051004 | 67 | 273 | 1.0 | 2.0 | 0.00 | 0.00 | 0.00 | 64 | 1020.5 |
| 20260507050004 | 67 | 264 | 2.0 | 7.0 | 0.00 | 0.00 | 0.00 | 63 | 1020.6 |
| 20260507045004 | 69 | 6 | 1.0 | 5.0 | 0.00 | 0.00 | 0.00 | 66 | 1020.5 |
| 20260507044004 | 69 | 180 | 0.0 | 2.0 | 0.00 | 0.00 | 0.00 | 71 | 1020.6 |
| 20260507043004 | 69 | 273 | 0.0 | 6.0 | 0.00 | 0.00 | 0.00 | 72 | 1020.5 |
| 20260507042004 | 69 | 255 | 2.0 | 9.0 | 0.00 | 0.00 | 0.00 | 71 | 1020.5 |
| 20260507041004 | 70 | 111 | 4.0 | 9.0 | 0.00 | 0.00 | 0.00 | 72 | 1020.5 |
| 20260507040005 | 70 | 139 | 2.0 | 17.0 | 0.00 | 0.00 | 0.00 | 74 | 1020.2 |
| 20260507034005 | 70 | 135 | 12.0 | 22.0 | 0.00 | 0.00 | 0.00 | 74 | 1020.0 |
| 20260507033005 | 70 | 157 | 10.0 | 26.0 | 0.00 | 0.00 | 0.00 | 73 | 1019.8 |
| 20260507032027 | 70 | 134 | 6.0 | 23.0 | 0.00 | 0.00 | 0.00 | 73 | 1019.8 |
| 20260507031005 | 70 | 131 | 8.0 | 17.0 | 0.00 | 0.00 | 0.00 | 72 | 1019.7 |
| 20260507025004 | 71 | 144 | 10.0 | 25.0 | 0.00 | 0.00 | 0.00 | 69 | 1019.2 |
| 20260507024004 | 71 | 151 | 14.0 | 26.0 | 0.00 | 0.00 | 0.00 | 69 | 1019.1 |
| 20260507023004 | 71 | 125 | 13.0 | 28.0 | 0.00 | 0.00 | 0.00 | 66 | 1018.9 |
| 20260507022003 | 72 | 126 | 12.0 | 28.0 | 0.00 | 0.00 | 0.00 | 62 | 1018.9 |
| 20260507021004 | 72 | 124 | 12.0 | 26.0 | 0.00 | 0.00 | 0.00 | 63 | 1018.5 |
| 20260507020005 | 72 | 143 | 8.0 | 25.0 | 0.00 | 0.00 | 0.00 | 61 | 1018.5 |
| 20260507015004 | 73 | 140 | 11.0 | 25.0 | 0.00 | 0.00 | 0.00 | 60 | 1018.2 |
| 20260507014004 | 73 | 150 | 17.0 | 26.0 | 0.00 | 0.00 | 0.00 | 60 | 1018.1 |
| 20260507013004 | 73 | 152 | 13.0 | 35.0 | 0.00 | 0.00 | 0.00 | 59 | 1018.1 |
| 20260507012004 | 73 | 151 | 4.0 | 35.0 | 0.00 | 0.00 | 0.00 | 62 | 1018.1 |
| 20260507011004 | 74 | 167 | 13.0 | 28.0 | 0.00 | 0.00 | 0.00 | 62 | 1017.9 |
| 20260507010005 | 75 | 157 | 20.0 | 26.0 | 0.00 | 0.00 | 0.00 | 60 | 1017.9 |
| 20260507005004 | 75 | 159 | 16.0 | 29.0 | 0.00 | 0.00 | 0.00 | 58 | 1017.7 |
| 20260507004004 | 77 | 166 | 10.0 | 26.0 | 0.00 | 0.00 | 0.00 | 55 | 1017.5 |
| 20260507002004 | 78 | 153 | 14.0 | 25.0 | 0.00 | 0.00 | 0.00 | 53 | 1017.4 |
| 20260507001004 | 79 | 139 | 11.0 | 28.0 | 0.00 | 0.00 | 0.00 | 53 | 1017.3 |
| 20260507000005 | 79 | 182 | 9.0 | 22.0 | 0.00 | 0.00 | 0.00 | 49 | 1017.4 |
| 20260506235005 | 80 | 196 | 6.0 | 25.0 | 0.00 | 0.00 | 0.00 | 50 | 1017.4 |
| 20260506234005 | 81 | 162 | 7.0 | 25.0 | 0.00 | 0.00 | 0.00 | 46 | 1017.3 |
| 20260506233005 | 81 | 150 | 16.0 | 25.0 | 0.00 | 0.00 | 0.00 | 46 | 1017.4 |
| 20260506232005 | 82 | 198 | 8.0 | 22.0 | 0.00 | 0.00 | 0.00 | 46 | 1017.2 |
| 20260506231005 | 82 | 151 | 10.0 | 26.0 | 0.00 | 0.00 | 0.00 | 45 | 1017.2 |
| 20260506230006 | 82 | 154 | 5.0 | 22.0 | 0.00 | 0.00 | 0.00 | 47 | 1017.3 |
| 20260506224005 | 82 | 172 | 15.0 | 24.0 | 0.00 | 0.00 | 0.00 | 48 | 1017.2 |
| 20260506223004 | 83 | 155 | 12.0 | 20.0 | 0.00 | 0.00 | 0.00 | 48 | 1017.2 |
| 20260506222005 | 83 | 163 | 10.0 | 24.0 | 0.00 | 0.00 | 0.00 | 48 | 1017.3 |
| 20260506221025 | 84 | 202 | 6.0 | 28.0 | 0.00 | 0.00 | 0.00 | 49 | 1017.4 |
| 20260506220004 | 84 | 167 | 13.0 | 31.0 | 0.00 | 0.00 | 0.00 | 50 | 1017.4 |
| 20260506214004 | 85 | 146 | 6.0 | 22.0 | 0.00 | 0.00 | 0.00 | 49 | 1017.7 |
| 20260506213004 | 85 | 151 | 12.0 | 24.0 | 0.00 | 0.00 | 0.00 | 47 | 1017.6 |
| 20260506211004 | 85 | 166 | 8.0 | 25.0 | 0.00 | 0.00 | 0.00 | 44 | 1017.7 |
| 20260506210004 | 87 | 160 | 7.0 | 21.0 | 0.00 | 0.00 | 0.00 | 43 | 1017.8 |